Regional Weather Roundup
Issued by NWS Cleveland, OH

Home | Current Version | Previous Version | Graphics & Text | Print | Product List | Glossary On
Versions: 1 2 3 4 5 6 7 8 9 10 11 12 13 14 15 16 17 18 19 20 21 22 23 24 25 26 27 28 29 30 31 32 33 34 35 36 37 38 39 40 41 42 43 44 45 46 47 48 49 50
000
ASUS41 KCLE 301300
RWRCLE
OHIO REGIONAL WEATHER ROUNDUP
NATIONAL WEATHER SERVICE WILMINGTON, OH
900 AM EDT MON MAY 30 2016

NOTE: "FAIR" INDICATES FEW OR NO CLOUDS BELOW 12,000 FEET WITH NO
SIGNIFICANT WEATHER AND/OR OBSTRUCTIONS TO VISIBILITY.

OHZ001>008-015>018-024>027-034-035-043-044-301400-
   NORTHWEST OHIO

CITY           SKY/WX    TMP DP  RH WIND       PRES   REMARKS
DEFIANCE       FAIR      72  58  61 VRB3      30.04R
FINDLAY        FAIR      74  57  55 W7        30.03S
TOLEDO EXPRESS FAIR      71  57  61 W8        30.02S
TOLEDO EXEC    FAIR      73  58  59 W7        30.03S
LIMA           FAIR      72  59  63 W7        30.05S
$$

OHZ009>014-019>023-028>033-038-089-301400-
   NORTHEAST OHIO

CITY           SKY/WX    TMP DP  RH WIND       PRES   REMARKS
CLE-HOPKINS    FAIR      72  61  68 W5        30.03S
CLE-LAKEFRONT  FAIR      73  60  63 W7        30.00S
CUY CO. ARPT   MOSUNNY   73  63  68 NW6       30.02S
LORAIN-ELYRIA  FAIR      71  60  68 W5        30.03R
ASHTABULA      FAIR      70  63  78 SW3       30.02S
AKRON-CANTON   PTSUNNY   72  60  66 NW6       30.03S
WOOSTER        NOT AVBL
MANSFIELD      FAIR      72  60  66 CALM      30.05R
YOUNGSTOWN     PTSUNNY   70  62  76 W6        30.03R
$$

OHZ042-051>053-060>062-070>072-077>081-301400-
  SOUTHWEST OHIO

CITY           SKY/WX    TMP DP  RH WIND       PRES   REMARKS
CINC-COVINGTON FAIR      73  66  78 N5        30.06R
CINC-LUNKEN    FAIR      71  67  87 CALM      30.05S
HAMILTON       FAIR      74  62  66 CALM      30.06S
DAYTON         NOT AVBL
WRIGHT-PAT AFB NOT AVBL
DAYTON GENERAL FAIR      73  61  65 N5        30.05S
WILMINGTON     FAIR      72  64  76 N5        30.06R
$$

OHZ036-037-039>041-045>050-054>059-063>069-073>076-082>088-301400-
  CENTRAL AND SOUTHEAST OHIO

CITY           SKY/WX    TMP DP  RH WIND       PRES   REMARKS
COLUMBUS       PTSUNNY   69  63  81 N3        30.03S
OSU AIRPORT    FAIR      73  62  68 N3        30.04R
BOLTON FIELD   NOT AVBL
RICKENBACK AFB NOT AVBL
NEWARK         FAIR      73  62  68 E5        30.03R
MARION         FAIR      72  61  68 CALM      30.05R
LANCASTER      FAIR      71  64  78 CALM      30.04R
ZANESVILLE     FAIR      72  62  71 NW3       30.03S
NEW PHILLY     FAIR      72  62  71 VRB3      30.04R
$$



USA.gov is the U.S. government's official web portal to all federal, state and local government web resources and services.